| time (UTC) | temp C | wind direction | speed KPH | gust KPH | rain 1hr cm | rain 24hr cm | rain mn cm | humidity % | barometer mb |
| 20260507065027 | 21 | 270 | 3.2 | 9.7 | 0.00 | 0.00 | 0.00 | 61 | 1013.8 |
| 20260507064527 | 20 | 0 | 8.0 | 14.5 | 0.00 | 0.00 | 0.00 | 62 | 1013.9 |
| 20260507064027 | 20 | 225 | 6.4 | 12.9 | 0.00 | 0.00 | 0.00 | 62 | 1013.9 |
| 20260507063527 | 20 | 270 | 3.2 | 11.3 | 0.00 | 0.00 | 0.00 | 61 | 1014.0 |
| 20260507063027 | 20 | 225 | 4.8 | 12.9 | 0.00 | 0.00 | 0.00 | 64 | 1014.0 |
| 20260507062527 | 20 | 270 | 6.4 | 12.9 | 0.00 | 0.00 | 0.00 | 64 | 1014.0 |
| 20260507062027 | 19 | 315 | 3.2 | 12.9 | 0.00 | 0.00 | 0.00 | 63 | 1013.9 |
| 20260507061527 | 19 | 225 | 6.4 | 12.9 | 0.00 | 0.00 | 0.00 | 66 | 1013.9 |
| 20260507061027 | 19 | 270 | 8.0 | 12.9 | 0.00 | 0.00 | 0.00 | 67 | 1014.0 |
| 20260507060527 | 18 | 0 | 3.2 | 12.9 | 0.00 | 0.00 | 0.00 | 68 | 1014.0 |
| 20260507060027 | 18 | 225 | 3.2 | 12.9 | 0.00 | 0.00 | 0.00 | 69 | 1014.0 |
| 20260507055527 | 17 | 270 | 3.2 | 12.9 | 0.00 | 0.00 | 0.00 | 71 | 1014.1 |
| 20260507055027 | 17 | 270 | 3.2 | 11.3 | 0.00 | 0.00 | 0.00 | 73 | 1014.1 |
| 20260507054527 | 17 | 270 | 4.8 | 11.3 | 0.00 | 0.00 | 0.00 | 75 | 1014.1 |
| 20260507054026 | 16 | 270 | 3.2 | 12.9 | 0.00 | 0.00 | 0.00 | 76 | 1014.1 |
| 20260507053527 | 16 | 270 | 3.2 | 8.0 | 0.00 | 0.00 | 0.00 | 76 | 1014.1 |
| 20260507053027 | 16 | 225 | 3.2 | 11.3 | 0.00 | 0.00 | 0.00 | 78 | 1014.2 |
| 20260507052526 | 16 | 248 | 6.4 | 11.3 | 0.00 | 0.00 | 0.00 | 79 | 1014.2 |
| 20260507052027 | 15 | 315 | 3.2 | 8.0 | 0.00 | 0.00 | 0.00 | 81 | 1014.3 |
| 20260507051526 | 15 | 270 | 3.2 | 9.7 | 0.00 | 0.00 | 0.00 | 81 | 1014.3 |
| 20260507051026 | 15 | 270 | 6.4 | 11.3 | 0.00 | 0.00 | 0.00 | 81 | 1014.4 |
| 20260507050527 | 15 | 338 | 0.0 | 6.4 | 0.00 | 0.00 | 0.00 | 83 | 1014.4 |
| 20260507050026 | 15 | 270 | 1.6 | 8.0 | 0.00 | 0.00 | 0.00 | 83 | 1014.5 |
| 20260507045526 | 14 | 248 | 3.2 | 8.0 | 0.00 | 0.00 | 0.00 | 87 | 1014.4 |
| 20260507045027 | 13 | 270 | 3.2 | 8.0 | 0.00 | 0.00 | 0.00 | 90 | 1014.4 |
| 20260507044526 | 12 | 315 | 3.2 | 14.5 | 0.00 | 0.00 | 0.00 | 92 | 1014.3 |
| 20260507044026 | 12 | 293 | 3.2 | 12.9 | 0.00 | 0.00 | 0.00 | 92 | 1014.1 |
| 20260507043526 | 12 | 225 | 3.2 | 11.3 | 0.00 | 0.00 | 0.00 | 93 | 1014.1 |
| 20260507043026 | 12 | 270 | 6.4 | 11.3 | 0.00 | 0.00 | 0.00 | 93 | 1014.0 |
| 20260507042527 | 11 | 270 | 4.8 | 12.9 | 0.00 | 0.00 | 0.00 | 94 | 1014.1 |
| 20260507042026 | 11 | 225 | 3.2 | 12.9 | 0.00 | 0.00 | 0.00 | 94 | 1014.0 |
| 20260507041526 | 11 | 293 | 3.2 | 12.9 | 0.00 | 0.00 | 0.00 | 95 | 1014.1 |
| 20260507041026 | 11 | 270 | 3.2 | 11.3 | 0.00 | 0.00 | 0.00 | 96 | 1013.9 |
| 20260507040525 | 10 | 225 | 3.2 | 11.3 | 0.00 | 0.00 | 0.00 | 96 | 1013.8 |
| 20260507040026 | 10 | 225 | 6.4 | 12.9 | 0.00 | 0.00 | 0.00 | 96 | 1013.8 |
| 20260507035526 | 10 | 225 | 6.4 | 12.9 | 0.00 | 0.00 | 0.00 | 95 | 1013.8 |
| 20260507035025 | 10 | 270 | 6.4 | 17.7 | 0.00 | 0.00 | 0.00 | 94 | 1013.6 |
| 20260507034526 | 10 | 225 | 3.2 | 9.7 | 0.00 | 0.00 | 0.00 | 94 | 1013.6 |
| 20260507034026 | 10 | 270 | 3.2 | 11.3 | 0.00 | 0.00 | 0.00 | 94 | 1013.6 |
| 20260507033526 | 10 | 225 | 1.6 | 8.0 | 0.00 | 0.00 | 0.00 | 94 | 1013.6 |
| 20260507033026 | 10 | 270 | 3.2 | 8.0 | 0.00 | 0.00 | 0.00 | 94 | 1013.5 |
| 20260507032525 | 10 | 225 | 3.2 | 8.0 | 0.00 | 0.00 | 0.00 | 94 | 1013.5 |
| 20260507032025 | 10 | 270 | 3.2 | 8.0 | 0.00 | 0.00 | 0.00 | 94 | 1013.4 |
| 20260507031526 | 9 | 225 | 3.2 | 6.4 | 0.00 | 0.00 | 0.00 | 94 | 1013.4 |
| 20260507031025 | 9 | 270 | 3.2 | 6.4 | 0.00 | 0.00 | 0.00 | 94 | 1013.4 |
| 20260507030525 | 9 | 225 | 3.2 | 8.0 | 0.00 | 0.00 | 0.00 | 93 | 1013.3 |
| 20260507030026 | 9 | 248 | 3.2 | 8.0 | 0.00 | 0.00 | 0.00 | 93 | 1013.2 |
| 20260507025525 | 9 | 270 | 1.6 | 8.0 | 0.00 | 0.00 | 0.00 | 93 | 1013.1 |
| 20260507025025 | 9 | 225 | 3.2 | 6.4 | 0.00 | 0.00 | 0.00 | 93 | 1013.0 |
| 20260507024525 | 9 | 270 | 1.6 | 8.0 | 0.00 | 0.00 | 0.00 | 93 | 1013.0 |
| 20260507024025 | 9 | 225 | 3.2 | 8.0 | 0.00 | 0.00 | 0.00 | 93 | 1012.9 |
| 20260507023525 | 9 | 270 | 1.6 | 6.4 | 0.00 | 0.00 | 0.00 | 93 | 1012.8 |
| 20260507023025 | 9 | 248 | 3.2 | 8.0 | 0.00 | 0.00 | 0.00 | 93 | 1012.7 |
| 20260507022525 | 9 | 248 | 0.0 | 4.8 | 0.00 | 0.00 | 0.00 | 94 | 1012.7 |
| 20260507022025 | 9 | 293 | 0.0 | 6.4 | 0.00 | 0.00 | 0.00 | 94 | 1012.5 |
| 20260507021525 | 9 | 225 | 3.2 | 6.4 | 0.00 | 0.00 | 0.00 | 94 | 1012.5 |
| 20260507021024 | 9 | 225 | 3.2 | 4.8 | 0.00 | 0.00 | 0.00 | 94 | 1012.6 |
| 20260507020525 | 9 | 270 | 0.0 | 1.6 | 0.00 | 0.00 | 0.00 | 94 | 1012.5 |
| 20260507020024 | 9 | 270 | 0.0 | 3.2 | 0.00 | 0.00 | 0.00 | 94 | 1012.4 |
| 20260507015525 | 9 | 225 | 0.0 | 3.2 | 0.00 | 0.00 | 0.00 | 94 | 1012.3 |
| 20260507015025 | 9 | 270 | 1.6 | 6.4 | 0.00 | 0.00 | 0.00 | 94 | 1012.3 |
| 20260507014524 | 9 | 270 | 1.6 | 3.2 | 0.00 | 0.00 | 0.00 | 94 | 1012.2 |
| 20260507014025 | 9 | 225 | 0.0 | 3.2 | 0.00 | 0.00 | 0.00 | 94 | 1012.2 |
| 20260507013525 | 9 | 270 | 0.0 | 3.2 | 0.00 | 0.00 | 0.00 | 94 | 1012.2 |
| 20260507013024 | 10 | 270 | 0.0 | 1.6 | 0.00 | 0.00 | 0.00 | 94 | 1012.2 |
| 20260507012524 | 10 | 315 | 0.0 | 0.0 | 0.00 | 0.00 | 0.00 | 94 | 1012.2 |
| 20260507012024 | 10 | 270 | 0.0 | 3.2 | 0.00 | 0.00 | 0.00 | 94 | 1012.2 |
| 20260507011524 | 10 | 315 | 0.0 | 6.4 | 0.00 | 0.00 | 0.00 | 94 | 1012.1 |
| 20260507011025 | 10 | 270 | 1.6 | 8.0 | 0.00 | 0.00 | 0.00 | 94 | 1012.1 |
| 20260507010524 | 10 | 225 | 3.2 | 9.7 | 0.00 | 0.00 | 0.00 | 93 | 1012.0 |
| 20260507010024 | 9 | 270 | 3.2 | 4.8 | 0.00 | 0.00 | 0.00 | 92 | 1011.9 |
| 20260507005525 | 10 | 248 | 1.6 | 3.2 | 0.00 | 0.00 | 0.00 | 92 | 1012.0 |
| 20260507005024 | 10 | 225 | 0.0 | 3.2 | 0.00 | 0.00 | 0.00 | 92 | 1012.0 |
| 20260507004524 | 10 | 0 | 0.0 | 0.0 | 0.00 | 0.00 | 0.00 | 92 | 1011.9 |
| 20260507004024 | 10 | 225 | 0.0 | 3.2 | 0.00 | 0.00 | 0.00 | 91 | 1011.9 |
| 20260507003524 | 10 | 270 | 0.0 | 4.8 | 0.00 | 0.00 | 0.00 | 91 | 1011.9 |
| 20260507003024 | 10 | 270 | 0.0 | 1.6 | 0.00 | 0.00 | 0.00 | 91 | 1011.8 |
| 20260507002524 | 10 | 270 | 0.0 | 3.2 | 0.00 | 0.00 | 0.00 | 90 | 1011.8 |
| 20260507002024 | 10 | 270 | 0.0 | 3.2 | 0.00 | 0.00 | 0.00 | 90 | 1011.8 |
| 20260507001524 | 10 | 0 | 0.0 | 0.0 | 0.00 | 0.00 | 0.00 | 89 | 1011.8 |
| 20260507001024 | 10 | 270 | 0.0 | 1.6 | 0.00 | 0.00 | 0.00 | 88 | 1011.8 |
| 20260507000523 | 10 | 315 | 0.0 | 0.0 | 0.00 | 0.00 | 0.00 | 89 | 1011.8 |
| 20260507000024 | 10 | 315 | 0.0 | 1.6 | 0.00 | 0.00 | 0.00 | 89 | 1011.8 |
| 20260506235523 | 10 | 315 | 0.0 | 1.6 | 0.00 | 0.00 | 0.00 | 89 | 1011.7 |
| 20260506235024 | 10 | 0 | 0.0 | 0.0 | 0.00 | 0.00 | 0.00 | 89 | 1011.6 |
| 20260506234524 | 10 | 315 | 0.0 | 0.0 | 0.00 | 0.00 | 0.00 | 89 | 1011.6 |
| 20260506234023 | 10 | 0 | 0.0 | 3.2 | 0.00 | 0.00 | 0.00 | 89 | 1011.6 |
| 20260506233524 | 10 | 315 | 0.0 | 3.2 | 0.00 | 0.00 | 0.00 | 88 | 1011.4 |
| 20260506233023 | 10 | 270 | 0.0 | 4.8 | 0.00 | 0.00 | 0.00 | 88 | 1011.4 |
| 20260506232523 | 10 | 270 | 1.6 | 6.4 | 0.00 | 0.00 | 0.00 | 87 | 1011.4 |
| 20260506232024 | 10 | 270 | 0.0 | 3.2 | 0.00 | 0.00 | 0.00 | 88 | 1011.4 |
| 20260506231523 | 10 | 270 | 0.0 | 6.4 | 0.00 | 0.00 | 0.00 | 88 | 1011.5 |
| 20260506231023 | 10 | 315 | 0.0 | 4.8 | 0.00 | 0.00 | 0.00 | 88 | 1011.5 |
| 20260506230523 | 10 | 270 | 1.6 | 6.4 | 0.00 | 0.00 | 0.00 | 88 | 1011.6 |
| 20260506230023 | 10 | 270 | 0.0 | 3.2 | 0.00 | 0.00 | 0.00 | 87 | 1011.6 |
| 20260506225522 | 10 | 315 | 0.0 | 0.0 | 0.00 | 0.00 | 0.00 | 87 | 1011.6 |
| 20260506225023 | 10 | 315 | 0.0 | 0.0 | 0.00 | 0.00 | 0.00 | 87 | 1011.6 |
| 20260506224523 | 10 | 0 | 0.0 | 0.0 | 0.00 | 0.00 | 0.00 | 88 | 1011.6 |
| 20260506224023 | 10 | 0 | 0.0 | 0.0 | 0.00 | 0.00 | 0.00 | 88 | 1011.5 |
| 20260506223523 | 10 | 270 | 0.0 | 0.0 | 0.00 | 0.00 | 0.00 | 87 | 1011.5 |
| 20260506223023 | 10 | 270 | 0.0 | 0.0 | 0.00 | 0.00 | 0.00 | 86 | 1011.5 |
| 20260506222523 | 11 | 0 | 0.0 | 0.0 | 0.00 | 0.00 | 0.00 | 86 | 1011.6 |
| 20260506222023 | 11 | 0 | 0.0 | 0.0 | 0.00 | 0.00 | 0.00 | 86 | 1011.7 |
| 20260506221522 | 11 | 0 | 0.0 | 0.0 | 0.00 | 0.00 | 0.00 | 86 | 1011.6 |
| 20260506221023 | 11 | 0 | 0.0 | 0.0 | 0.00 | 0.00 | 0.00 | 86 | 1011.5 |
| 20260506220522 | 11 | 0 | 0.0 | 0.0 | 0.00 | 0.00 | 0.00 | 87 | 1011.6 |
| 20260506220023 | 11 | 270 | 0.0 | 0.0 | 0.00 | 0.00 | 0.00 | 86 | 1011.5 |
| 20260506215523 | 11 | 270 | 0.0 | 0.0 | 0.00 | 0.00 | 0.00 | 85 | 1011.5 |
| 20260506215022 | 11 | 315 | 0.0 | 0.0 | 0.00 | 0.00 | 0.00 | 85 | 1011.5 |
| 20260506214523 | 11 | 315 | 0.0 | 0.0 | 0.00 | 0.00 | 0.00 | 84 | 1011.5 |
| 20260506214022 | 11 | 0 | 0.0 | 0.0 | 0.00 | 0.00 | 0.00 | 84 | 1011.5 |
| 20260506213523 | 12 | 315 | 0.0 | 0.0 | 0.00 | 0.00 | 0.00 | 83 | 1011.4 |
| 20260506213022 | 12 | 315 | 0.0 | 3.2 | 0.00 | 0.00 | 0.00 | 82 | 1011.5 |
| 20260506212523 | 12 | 315 | 0.0 | 3.2 | 0.00 | 0.00 | 0.00 | 82 | 1011.4 |
| 20260506212022 | 12 | 0 | 0.0 | 1.6 | 0.00 | 0.00 | 0.00 | 81 | 1011.4 |
| 20260506211522 | 12 | 90 | 0.0 | 3.2 | 0.00 | 0.00 | 0.00 | 81 | 1011.4 |
| 20260506211022 | 12 | 338 | 0.0 | 3.2 | 0.00 | 0.00 | 0.00 | 82 | 1011.4 |
| 20260506210522 | 12 | 0 | 0.0 | 1.6 | 0.00 | 0.00 | 0.00 | 82 | 1011.3 |
| 20260506210022 | 12 | 315 | 0.0 | 3.2 | 0.00 | 0.00 | 0.00 | 82 | 1011.4 |
| 20260506205522 | 12 | 315 | 0.0 | 1.6 | 0.00 | 0.00 | 0.00 | 82 | 1011.3 |
| 20260506205023 | 12 | 270 | 0.0 | 1.6 | 0.00 | 0.00 | 0.00 | 82 | 1011.2 |
| 20260506204522 | 12 | 315 | 0.0 | 3.2 | 0.00 | 0.00 | 0.00 | 81 | 1011.3 |
| 20260506204022 | 12 | 270 | 1.6 | 4.8 | 0.00 | 0.00 | 0.00 | 81 | 1011.3 |
| 20260506203522 | 12 | 0 | 0.0 | 3.2 | 0.00 | 0.00 | 0.00 | 81 | 1011.3 |
| 20260506203022 | 12 | 270 | 0.0 | 1.6 | 0.00 | 0.00 | 0.00 | 80 | 1011.3 |
| 20260506202520 | 12 | 270 | 0.0 | 3.2 | 0.00 | 0.00 | 0.00 | 80 | 1011.2 |
| 20260506202022 | 12 | 180 | 0.0 | 4.8 | 0.00 | 0.00 | 0.00 | 80 | 1011.1 |
| 20260506201522 | 13 | 270 | 1.6 | 4.8 | 0.00 | 0.00 | 0.00 | 80 | 1011.1 |
| 20260506201020 | 13 | 248 | 1.6 | 4.8 | 0.00 | 0.00 | 0.00 | 79 | 1011.1 |
| 20260506200521 | 13 | 270 | 3.2 | 8.0 | 0.00 | 0.00 | 0.00 | 78 | 1011.0 |
| 20260506200020 | 13 | 270 | 1.6 | 6.4 | 0.00 | 0.00 | 0.00 | 77 | 1011.0 |
| 20260506195521 | 13 | 225 | 3.2 | 8.0 | 0.00 | 0.00 | 0.00 | 77 | 1011.0 |
| 20260506195021 | 13 | 0 | 1.6 | 11.3 | 0.00 | 0.00 | 0.00 | 77 | 1011.0 |
| 20260506194520 | 13 | 225 | 3.2 | 8.0 | 0.00 | 0.00 | 0.00 | 76 | 1011.0 |
| 20260506194019 | 13 | 225 | 1.6 | 6.4 | 0.00 | 0.00 | 0.00 | 76 | 1011.0 |
| 20260506193520 | 13 | 248 | 1.6 | 6.4 | 0.00 | 0.00 | 0.00 | 76 | 1011.1 |
| 20260506193020 | 13 | 225 | 1.6 | 8.0 | 0.00 | 0.00 | 0.00 | 76 | 1011.1 |
| 20260506192003 | 13 | 0 | 0.0 | 3.2 | 0.00 | 0.00 | 0.00 | 76 | 1011.0 |
| 20260506191504 | 13 | 315 | 0.0 | 3.2 | 0.00 | 0.00 | 0.00 | 76 | 1011.1 |
| 20260506191003 | 13 | 315 | 0.0 | 4.8 | 0.00 | 0.00 | 0.00 | 76 | 1011.0 |
| 20260506190501 | 13 | 270 | 0.0 | 3.2 | 0.00 | 0.00 | 0.00 | 77 | 1011.1 |
| 20260506190001 | 13 | 270 | 0.0 | 0.0 | 0.00 | 0.00 | 0.00 | 77 | 1011.1 |
| 20260506185501 | 13 | 315 | 0.0 | 0.0 | 0.00 | 0.00 | 0.00 | 78 | 1011.1 |
| 20260506185002 | 13 | 315 | 0.0 | 0.0 | 0.00 | 0.00 | 0.00 | 77 | 1011.1 |
| 20260506184501 | 14 | 315 | 0.0 | 0.0 | 0.00 | 0.00 | 0.00 | 75 | 1011.1 |
| 20260506184002 | 14 | 315 | 0.0 | 0.0 | 0.00 | 0.00 | 0.00 | 75 | 1011.0 |
| 20260506183500 | 14 | 315 | 0.0 | 0.0 | 0.00 | 0.00 | 0.00 | 73 | 1011.0 |
| 20260506183000 | 14 | 315 | 0.0 | 0.0 | 0.00 | 0.00 | 0.00 | 72 | 1010.9 |
| 20260506182500 | 15 | 315 | 0.0 | 0.0 | 0.00 | 0.00 | 0.00 | 71 | 1010.9 |
| 20260506182000 | 15 | 315 | 0.0 | 3.2 | 0.00 | 0.00 | 0.00 | 71 | 1010.8 |
| 20260506181500 | 15 | 315 | 0.0 | 3.2 | 0.00 | 0.00 | 0.00 | 71 | 1010.7 |
| 20260506181000 | 15 | 270 | 1.6 | 4.8 | 0.00 | 0.00 | 0.00 | 70 | 1010.8 |
| 20260506180458 | 15 | 0 | 1.6 | 6.4 | 0.00 | 0.00 | 0.00 | 70 | 1010.8 |
| 20260506175958 | 15 | 225 | 0.0 | 3.2 | 0.00 | 0.00 | 0.00 | 71 | 1010.9 |
| 20260506175457 | 15 | 225 | 0.0 | 0.0 | 0.00 | 0.00 | 0.00 | 71 | 1010.8 |
| 20260506174957 | 15 | 270 | 0.0 | 1.6 | 0.00 | 0.00 | 0.00 | 70 | 1010.8 |
| 20260506174458 | 15 | 0 | 0.0 | 1.6 | 0.00 | 0.00 | 0.00 | 69 | 1010.7 |
| 20260506173958 | 16 | 270 | 0.0 | 1.6 | 0.00 | 0.00 | 0.00 | 69 | 1010.7 |
| 20260506173458 | 16 | 270 | 0.0 | 1.6 | 0.00 | 0.00 | 0.00 | 68 | 1010.6 |
| 20260506172958 | 16 | 0 | 0.0 | 3.2 | 0.00 | 0.00 | 0.00 | 68 | 1010.6 |
| 20260506172457 | 16 | 270 | 0.0 | 3.2 | 0.00 | 0.00 | 0.00 | 67 | 1010.5 |
| 20260506171957 | 16 | 270 | 0.0 | 3.2 | 0.00 | 0.00 | 0.00 | 67 | 1010.6 |
| 20260506171456 | 16 | 270 | 0.0 | 3.2 | 0.00 | 0.00 | 0.00 | 67 | 1010.5 |
| 20260506170956 | 16 | 225 | 0.0 | 3.2 | 0.00 | 0.00 | 0.00 | 67 | 1010.4 |
| 20260506170455 | 16 | 225 | 0.0 | 3.2 | 0.00 | 0.00 | 0.00 | 66 | 1010.5 |
| 20260506165955 | 17 | 270 | 0.0 | 3.2 | 0.00 | 0.00 | 0.00 | 67 | 1010.4 |
| 20260506165454 | 17 | 0 | 0.0 | 3.2 | 0.00 | 0.00 | 0.00 | 66 | 1010.3 |
| 20260506164954 | 17 | 0 | 0.0 | 3.2 | 0.00 | 0.00 | 0.00 | 64 | 1010.3 |
| 20260506164454 | 17 | 270 | 0.0 | 3.2 | 0.00 | 0.00 | 0.00 | 64 | 1010.3 |
| 20260506163954 | 17 | 270 | 0.0 | 3.2 | 0.00 | 0.00 | 0.00 | 64 | 1010.3 |
| 20260506162954 | 17 | 270 | 0.0 | 3.2 | 0.00 | 0.00 | 0.00 | 62 | 1010.1 |
| 20260506162454 | 18 | 315 | 0.0 | 3.2 | 0.00 | 0.00 | 0.00 | 61 | 1010.1 |
| 20260506161954 | 18 | 0 | 0.0 | 4.8 | 0.00 | 0.00 | 0.00 | 60 | 1010.1 |
| 20260506161454 | 18 | 270 | 0.0 | 4.8 | 0.00 | 0.00 | 0.00 | 59 | 1010.0 |
| 20260506160955 | 18 | 315 | 1.6 | 4.8 | 0.00 | 0.00 | 0.00 | 58 | 1010.0 |
| 20260506160454 | 18 | 270 | 0.0 | 4.8 | 0.00 | 0.00 | 0.00 | 57 | 1010.0 |
| 20260506155953 | 18 | 270 | 1.6 | 6.4 | 0.00 | 0.00 | 0.00 | 57 | 1009.9 |
| 20260506155454 | 19 | 270 | 0.0 | 4.8 | 0.00 | 0.00 | 0.00 | 56 | 1009.9 |
| 20260506154954 | 19 | 180 | 1.6 | 6.4 | 0.00 | 0.00 | 0.00 | 55 | 1009.9 |
| 20260506154454 | 19 | 270 | 3.2 | 8.0 | 0.00 | 0.00 | 0.00 | 54 | 1009.9 |
| 20260506153954 | 19 | 270 | 1.6 | 8.0 | 0.00 | 0.00 | 0.00 | 54 | 1009.9 |
| 20260506153454 | 19 | 270 | 3.2 | 6.4 | 0.00 | 0.00 | 0.00 | 54 | 1009.9 |
| 20260506152953 | 19 | 0 | 0.0 | 8.0 | 0.00 | 0.00 | 0.00 | 53 | 1009.9 |
| 20260506152454 | 19 | 315 | 3.2 | 8.0 | 0.00 | 0.00 | 0.00 | 52 | 1009.8 |
| 20260506151954 | 20 | 270 | 3.2 | 11.3 | 0.00 | 0.00 | 0.00 | 52 | 1009.8 |
| 20260506151453 | 20 | 270 | 3.2 | 12.9 | 0.00 | 0.00 | 0.00 | 51 | 1009.8 |
| 20260506150954 | 20 | 270 | 3.2 | 8.0 | 0.00 | 0.00 | 0.00 | 50 | 1009.8 |
| 20260506150453 | 20 | 315 | 6.4 | 12.9 | 0.00 | 0.00 | 0.00 | 50 | 1009.7 |
| 20260506145953 | 20 | 248 | 1.6 | 11.3 | 0.00 | 0.00 | 0.00 | 49 | 1009.7 |
| 20260506145454 | 20 | 270 | 3.2 | 12.9 | 0.00 | 0.00 | 0.00 | 51 | 1009.7 |
| 20260506144953 | 20 | 248 | 3.2 | 12.9 | 0.00 | 0.00 | 0.00 | 50 | 1009.7 |
| 20260506144453 | 20 | 0 | 1.6 | 9.7 | 0.00 | 0.00 | 0.00 | 49 | 1009.7 |
| 20260506143953 | 20 | 270 | 3.2 | 11.3 | 0.00 | 0.00 | 0.00 | 51 | 1009.7 |
| 20260506143453 | 20 | 0 | 1.6 | 8.0 | 0.00 | 0.00 | 0.00 | 50 | 1009.7 |
| 20260506142953 | 20 | 225 | 3.2 | 11.3 | 0.00 | 0.00 | 0.00 | 51 | 1009.7 |
| 20260506142453 | 21 | 270 | 4.8 | 12.9 | 0.00 | 0.00 | 0.00 | 50 | 1009.7 |
| 20260506141953 | 21 | 270 | 0.0 | 9.7 | 0.00 | 0.00 | 0.00 | 49 | 1009.7 |
| 20260506140953 | 21 | 225 | 1.6 | 11.3 | 0.00 | 0.00 | 0.00 | 49 | 1009.7 |
| 20260506140453 | 21 | 180 | 4.8 | 12.9 | 0.00 | 0.00 | 0.00 | 50 | 1009.7 |
| 20260506135953 | 21 | 270 | 3.2 | 9.7 | 0.00 | 0.00 | 0.00 | 49 | 1009.7 |
| 20260506135453 | 21 | 270 | 4.8 | 12.9 | 0.00 | 0.00 | 0.00 | 49 | 1009.7 |
| 20260506134952 | 21 | 270 | 3.2 | 9.7 | 0.00 | 0.00 | 0.00 | 48 | 1009.7 |
| 20260506134453 | 21 | 270 | 4.8 | 11.3 | 0.00 | 0.00 | 0.00 | 50 | 1009.7 |
| 20260506133953 | 21 | 248 | 3.2 | 12.9 | 0.00 | 0.00 | 0.00 | 48 | 1009.6 |
| 20260506133452 | 21 | 270 | 4.8 | 12.9 | 0.00 | 0.00 | 0.00 | 48 | 1009.6 |
| 20260506132953 | 21 | 270 | 4.8 | 16.1 | 0.00 | 0.00 | 0.00 | 48 | 1009.7 |
| 20260506132452 | 21 | 270 | 1.6 | 11.3 | 0.00 | 0.00 | 0.00 | 49 | 1009.7 |
| 20260506131952 | 21 | 270 | 4.8 | 12.9 | 0.00 | 0.00 | 0.00 | 49 | 1009.6 |
| 20260506131453 | 21 | 315 | 3.2 | 8.0 | 0.00 | 0.00 | 0.00 | 49 | 1009.6 |
| 20260506130952 | 21 | 0 | 0.0 | 8.0 | 0.00 | 0.00 | 0.00 | 48 | 1009.6 |
| 20260506130452 | 21 | 225 | 3.2 | 11.3 | 0.00 | 0.00 | 0.00 | 47 | 1009.7 |
| 20260506125952 | 22 | 270 | 4.8 | 11.3 | 0.00 | 0.00 | 0.00 | 48 | 1009.7 |
| 20260506125452 | 21 | 315 | 3.2 | 17.7 | 0.00 | 0.00 | 0.00 | 47 | 1009.7 |
| 20260506124952 | 21 | 270 | 6.4 | 12.9 | 0.00 | 0.00 | 0.00 | 49 | 1009.7 |
| 20260506124452 | 21 | 0 | 3.2 | 11.3 | 0.00 | 0.00 | 0.00 | 49 | 1009.7 |
| 20260506123952 | 22 | 270 | 3.2 | 12.9 | 0.00 | 0.00 | 0.00 | 49 | 1009.6 |
| 20260506123452 | 22 | 225 | 3.2 | 12.9 | 0.00 | 0.00 | 0.00 | 48 | 1009.7 |
| 20260506122952 | 22 | 225 | 0.0 | 11.3 | 0.00 | 0.00 | 0.00 | 48 | 1009.7 |
| 20260506122452 | 22 | 225 | 6.4 | 11.3 | 0.00 | 0.00 | 0.00 | 49 | 1009.7 |
| 20260506121952 | 22 | 315 | 3.2 | 9.7 | 0.00 | 0.00 | 0.00 | 49 | 1009.8 |
| 20260506121452 | 21 | 315 | 3.2 | 8.0 | 0.00 | 0.00 | 0.00 | 49 | 1009.7 |
| 20260506120951 | 22 | 225 | 6.4 | 11.3 | 0.00 | 0.00 | 0.00 | 49 | 1009.8 |
| 20260506120452 | 21 | 270 | 4.8 | 12.9 | 0.00 | 0.00 | 0.00 | 50 | 1009.8 |
| 20260506115952 | 22 | 0 | 3.2 | 9.7 | 0.00 | 0.00 | 0.00 | 48 | 1009.8 |
| 20260506115452 | 22 | 270 | 4.8 | 12.9 | 0.00 | 0.00 | 0.00 | 47 | 1009.8 |
| 20260506114952 | 22 | 315 | 1.6 | 9.7 | 0.00 | 0.00 | 0.00 | 46 | 1009.8 |
| 20260506114451 | 22 | 315 | 3.2 | 8.0 | 0.00 | 0.00 | 0.00 | 47 | 1009.8 |
| 20260506113952 | 22 | 270 | 3.2 | 17.7 | 0.00 | 0.00 | 0.00 | 45 | 1009.8 |
| 20260506113452 | 22 | 338 | 4.8 | 9.7 | 0.00 | 0.00 | 0.00 | 46 | 1009.8 |
| 20260506112951 | 23 | 225 | 1.6 | 9.7 | 0.00 | 0.00 | 0.00 | 44 | 1009.8 |
| 20260506112452 | 23 | 270 | 4.8 | 11.3 | 0.00 | 0.00 | 0.00 | 47 | 1009.9 |
| 20260506111951 | 23 | 270 | 8.0 | 11.3 | 0.00 | 0.00 | 0.00 | 46 | 1009.8 |
| 20260506111451 | 23 | 293 | 0.0 | 8.0 | 0.00 | 0.00 | 0.00 | 44 | 1009.8 |
| 20260506110952 | 24 | 270 | 1.6 | 16.1 | 0.00 | 0.00 | 0.00 | 43 | 1009.8 |
| 20260506110450 | 24 | 158 | 1.6 | 9.7 | 0.00 | 0.00 | 0.00 | 44 | 1009.8 |
| 20260506105950 | 23 | 293 | 3.2 | 12.9 | 0.00 | 0.00 | 0.00 | 45 | 1009.9 |
| 20260506105450 | 24 | 225 | 1.6 | 14.5 | 0.00 | 0.00 | 0.00 | 45 | 1009.9 |
| 20260506104950 | 23 | 225 | 3.2 | 12.9 | 0.00 | 0.00 | 0.00 | 46 | 1009.9 |
| 20260506104047 | 23 | 315 | 3.2 | 6.4 | 0.00 | 0.00 | 0.00 | 46 | 1009.9 |
| 20260506103547 | 23 | 203 | 3.2 | 11.3 | 0.00 | 0.00 | 0.00 | 45 | 1009.9 |
| 20260506103046 | 23 | 270 | 3.2 | 8.0 | 0.00 | 0.00 | 0.00 | 46 | 1010.0 |
| 20260506102547 | 23 | 270 | 1.6 | 12.9 | 0.00 | 0.00 | 0.00 | 45 | 1010.0 |
| 20260506102047 | 23 | 225 | 3.2 | 8.0 | 0.00 | 0.00 | 0.00 | 47 | 1009.9 |
| 20260506101547 | 23 | 0 | 3.2 | 11.3 | 0.00 | 0.00 | 0.00 | 46 | 1010.0 |
| 20260506101047 | 23 | 225 | 4.8 | 11.3 | 0.00 | 0.00 | 0.00 | 47 | 1010.0 |
| 20260506100546 | 23 | 270 | 3.2 | 9.7 | 0.00 | 0.00 | 0.00 | 44 | 1010.0 |
| 20260506100046 | 23 | 270 | 1.6 | 12.9 | 0.00 | 0.00 | 0.00 | 45 | 1010.0 |
| 20260506095547 | 23 | 270 | 3.2 | 8.0 | 0.00 | 0.00 | 0.00 | 46 | 1010.1 |
| 20260506095046 | 23 | 225 | 3.2 | 9.7 | 0.00 | 0.00 | 0.00 | 47 | 1010.1 |
| 20260506094547 | 23 | 248 | 4.8 | 11.3 | 0.00 | 0.00 | 0.00 | 45 | 1010.0 |
| 20260506094046 | 22 | 270 | 1.6 | 8.0 | 0.00 | 0.00 | 0.00 | 47 | 1010.0 |
| 20260506093546 | 23 | 180 | 1.6 | 11.3 | 0.00 | 0.00 | 0.00 | 45 | 1010.0 |
| 20260506093047 | 24 | 270 | 1.6 | 8.0 | 0.00 | 0.00 | 0.00 | 45 | 1010.0 |
| 20260506092546 | 23 | 90 | 0.0 | 9.7 | 0.00 | 0.00 | 0.00 | 46 | 1010.1 |
| 20260506092046 | 24 | 270 | 3.2 | 11.3 | 0.00 | 0.00 | 0.00 | 44 | 1010.1 |
| 20260506091545 | 24 | 270 | 0.0 | 4.8 | 0.00 | 0.00 | 0.00 | 43 | 1010.0 |
| 20260506091046 | 23 | 248 | 1.6 | 6.4 | 0.00 | 0.00 | 0.00 | 43 | 1010.0 |
| 20260506090546 | 23 | 225 | 0.0 | 8.0 | 0.00 | 0.00 | 0.00 | 43 | 1010.0 |
| 20260506090046 | 23 | 0 | 6.4 | 12.9 | 0.00 | 0.00 | 0.00 | 43 | 1010.1 |
| 20260506085546 | 23 | 270 | 1.6 | 9.7 | 0.00 | 0.00 | 0.00 | 44 | 1010.1 |
| 20260506085045 | 24 | 225 | 3.2 | 12.9 | 0.00 | 0.00 | 0.00 | 44 | 1010.1 |
| 20260506084545 | 23 | 225 | 1.6 | 8.0 | 0.00 | 0.00 | 0.00 | 43 | 1010.1 |
| 20260506084046 | 23 | 270 | 1.6 | 8.0 | 0.00 | 0.00 | 0.00 | 42 | 1010.2 |
| 20260506083545 | 23 | 270 | 3.2 | 8.0 | 0.00 | 0.00 | 0.00 | 44 | 1010.2 |
| 20260506083045 | 23 | 225 | 0.0 | 6.4 | 0.00 | 0.00 | 0.00 | 44 | 1010.3 |
| 20260506082546 | 23 | 180 | 1.6 | 9.7 | 0.00 | 0.00 | 0.00 | 45 | 1010.4 |
| 20260506082045 | 23 | 270 | 1.6 | 8.0 | 0.00 | 0.00 | 0.00 | 48 | 1010.4 |
| 20260506081546 | 23 | 293 | 6.4 | 11.3 | 0.00 | 0.00 | 0.00 | 50 | 1010.4 |
| 20260506081045 | 23 | 135 | 0.0 | 6.4 | 0.00 | 0.00 | 0.00 | 46 | 1010.4 |
| 20260506080545 | 23 | 0 | 0.0 | 8.0 | 0.00 | 0.00 | 0.00 | 46 | 1010.4 |
| 20260506073045 | 22 | 270 | 3.2 | 8.0 | 0.00 | 0.00 | 0.00 | 48 | 1010.4 |
| 20260506072546 | 22 | 270 | 0.0 | 8.0 | 0.00 | 0.00 | 0.00 | 50 | 1010.4 |
| 20260506072045 | 22 | 270 | 1.6 | 8.0 | 0.00 | 0.00 | 0.00 | 47 | 1010.4 |
| 20260506071544 | 22 | 315 | 0.0 | 6.4 | 0.00 | 0.00 | 0.00 | 48 | 1010.4 |
| 20260506071045 | 21 | 0 | 0.0 | 8.0 | 0.00 | 0.00 | 0.00 | 48 | 1010.4 |
| 20260506070545 | 21 | 180 | 1.6 | 4.8 | 0.00 | 0.00 | 0.00 | 51 | 1010.5 |